Weather in Thira

Greece     36°25′00″N   25°25′59″E
temp.,
°C
wind,
m/s
gust,
m/s
humid.,
%
clouds,
%
prec.,
mm/h
press.,
hPa
HPBL,
m
5 december, sun
sun523:00+15ene7686100 4.4 1009337
02:00+15se447880 5.5 1009462
05:00+16nnw887678 0.1 1010896
08:00+16n55798 0.1 1012661
11:00+16wnw55761 0.0 1013604
14:00+17w44702 0.0 1013726
17:00+17sw67712 0.0 1013997
20:00+18wsw810670 0.0 10141251
6 december, mon
mon623:00+18sw9106762 0.0 10151344
02:00+18ssw78682 0.1 10151009
05:00+17sse78720 0.0 1014755
08:00+17ssw787018 0.0 1014599
11:00+18s89715 0.0 1014701
14:00+18sse697447 0.3 1012878
17:00+18sw1011755 0.4 10111035
20:00+18ssw1010662 0.4 1012995
7 december, tue
tue723:00+17s1214680 0.0 10111473
02:00+18sse1013640 0.0 10081522
05:00+18s1014685 0.1 10061731
08:00+17s151770100 0.3 10051815
11:00+16ssw101166100 2.5 10041169
14:00+16sw10116550 4.1 10021335
17:00+16wsw131468100 1.1 10021519
20:00+16wsw14156693 2.7 10021579
8 december, wed
wed823:00+16w14156865 1.4 10031548
02:00+16wnw9968100 3.8 10021136
05:00+15nw11117138 1.9 10051138
08:00+15nw9106618 3.3 10081356
11:00+15nw676971 0.6 1011962
14:00+16wnw77625 0.9 10111329
17:00+16wnw556012 0.1 10131392
20:00+16wsw45542 0.1 10151295
9 december, thu
thu923:00+16sw34530 0.0 1016973
02:00+17w56595 0.0 1016953
05:00+17w686611 0.0 1017866
08:00+17w687714 0.0 1017789
11:00+18wsw698120 0.1 1018817
14:00+18sw797994 0.3 1017931
17:00+18s5769100 0.0 1018632
20:00+18se5779100 0.0 1018605